| time (UTC) | temp F | wind direction | speed MPH | gust MPH | rain 1hr in | rain 24hr in | rain mn in | humidity % | barometer mb |
| 20260903083056 | 57 | 0 | 0.0 | 0.0 | 0.00 | 0.00 | 0.00 | 90 | 1015.2 |
| 20260903081602 | 57 | 0 | 0.0 | 0.0 | 0.00 | 0.00 | 0.00 | 89 | 1015.4 |
| 20260903080054 | 57 | 0 | 0.0 | 0.0 | 0.00 | 0.00 | 0.00 | 89 | 1015.6 |
| 20260903074556 | 58 | 0 | 0.0 | 0.0 | 0.00 | 0.00 | 0.00 | 89 | 1015.5 |
| 20260903073101 | 58 | 0 | 0.0 | 0.0 | 0.00 | 0.00 | 0.00 | 88 | 1015.4 |
| 20260903071604 | 58 | 0 | 0.0 | 0.0 | 0.00 | 0.00 | 0.00 | 88 | 1015.3 |
| 20260903070056 | 59 | 0 | 0.0 | 0.0 | 0.00 | 0.00 | 0.00 | 88 | 1015.3 |
| 20260903064555 | 59 | 0 | 0.0 | 0.0 | 0.00 | 0.00 | 0.00 | 87 | 1015.3 |
| 20260903063100 | 60 | 0 | 0.0 | 0.0 | 0.00 | 0.00 | 0.00 | 87 | 1015.2 |
| 20260903061613 | 60 | 0 | 0.0 | 0.0 | 0.00 | 0.00 | 0.00 | 86 | 1015.3 |
| 20260903060058 | 60 | 0 | 0.0 | 0.0 | 0.00 | 0.00 | 0.00 | 86 | 1015.4 |
| 20260903054553 | 61 | 0 | 0.0 | 0.0 | 0.00 | 0.00 | 0.00 | 85 | 1015.5 |
| 20260903053056 | 61 | 0 | 0.0 | 0.0 | 0.00 | 0.00 | 0.00 | 84 | 1015.7 |
| 20260903051557 | 62 | 0 | 0.0 | 0.0 | 0.00 | 0.00 | 0.00 | 84 | 1015.7 |
| 20260903050107 | 62 | 0 | 0.0 | 0.0 | 0.00 | 0.00 | 0.00 | 83 | 1015.8 |
| 20260903044559 | 63 | 0 | 0.0 | 0.0 | 0.00 | 0.00 | 0.00 | 82 | 1015.7 |
| 20260903043058 | 63 | 0 | 0.0 | 0.0 | 0.00 | 0.00 | 0.00 | 81 | 1015.6 |
| 20260903041604 | 63 | 0 | 0.0 | 0.0 | 0.00 | 0.00 | 0.00 | 80 | 1015.5 |
| 20260903040105 | 64 | 0 | 0.0 | 0.0 | 0.00 | 0.00 | 0.00 | 78 | 1015.3 |
| 20260903034607 | 65 | 0 | 0.0 | 0.0 | 0.00 | 0.00 | 0.00 | 77 | 1015.0 |
| 20260903033109 | 65 | 180 | 0.0 | 0.0 | 0.00 | 0.00 | 0.00 | 75 | 1014.7 |
| 20260903031615 | 66 | 0 | 0.0 | 1.0 | 0.00 | 0.00 | 0.00 | 73 | 1014.6 |
| 20260903030112 | 67 | 233 | 0.0 | 1.0 | 0.00 | 0.00 | 0.00 | 70 | 1014.5 |
| 20260903024602 | 68 | 210 | 0.0 | 2.0 | 0.00 | 0.00 | 0.00 | 68 | 1014.7 |
| 20260903023137 | 69 | 124 | 0.0 | 4.0 | 0.00 | 0.00 | 0.00 | 63 | 1014.6 |
| 20260903021603 | 70 | 276 | 0.0 | 5.0 | 0.00 | 0.00 | 0.00 | 58 | 1014.7 |
| 20260903020104 | 72 | 273 | 1.0 | 6.0 | 0.00 | 0.00 | 0.00 | 58 | 1014.6 |
| 20260903014602 | 73 | 176 | 1.0 | 3.0 | 0.00 | 0.00 | 0.00 | 54 | 1014.5 |
| 20260903013057 | 76 | 269 | 2.0 | 6.0 | 0.00 | 0.00 | 0.00 | 48 | 1014.4 |
| 20260903011601 | 77 | 260 | 1.0 | 5.0 | 0.00 | 0.00 | 0.00 | 49 | 1014.3 |
| 20260903004556 | 79 | 253 | 1.0 | 5.0 | 0.00 | 0.00 | 0.00 | 47 | 1014.2 |
| 20260903003055 | 79 | 197 | 2.0 | 6.0 | 0.00 | 0.00 | 0.00 | 45 | 1014.2 |
| 20260903001558 | 80 | 70 | 2.0 | 7.0 | 0.00 | 0.00 | 0.00 | 46 | 1014.2 |
| 20260903000056 | 79 | 279 | 3.0 | 7.0 | 0.00 | 0.00 | 0.00 | 47 | 1014.2 |
| 20260902234555 | 80 | 144 | 4.0 | 11.0 | 0.00 | 0.00 | 0.00 | 45 | 1014.3 |
| 20260902233102 | 80 | 179 | 3.0 | 6.0 | 0.00 | 0.00 | 0.00 | 46 | 1014.4 |
| 20260902231603 | 81 | 270 | 4.0 | 9.0 | 0.00 | 0.00 | 0.00 | 45 | 1014.4 |
| 20260902230113 | 82 | 293 | 3.0 | 8.0 | 0.00 | 0.00 | 0.00 | 45 | 1014.4 |
| 20260902224552 | 82 | 242 | 3.0 | 7.0 | 0.00 | 0.00 | 0.00 | 45 | 1014.6 |
| 20260902223057 | 82 | 237 | 2.0 | 8.0 | 0.00 | 0.00 | 0.00 | 45 | 1014.6 |
| 20260902221558 | 83 | 0 | 2.0 | 7.0 | 0.00 | 0.00 | 0.00 | 43 | 1014.8 |
| 20260902214555 | 82 | 265 | 3.0 | 10.0 | 0.00 | 0.00 | 0.00 | 44 | 1014.8 |
| 20260902213056 | 84 | 182 | 4.0 | 11.0 | 0.00 | 0.00 | 0.00 | 43 | 1014.9 |
| 20260902211612 | 85 | 274 | 3.0 | 9.0 | 0.00 | 0.00 | 0.00 | 41 | 1014.8 |
| 20260902210058 | 85 | 326 | 4.0 | 10.0 | 0.00 | 0.00 | 0.00 | 41 | 1014.8 |
| 20260902204556 | 86 | 210 | 3.0 | 9.0 | 0.00 | 0.00 | 0.00 | 41 | 1015.0 |
| 20260902203108 | 87 | 243 | 4.0 | 7.0 | 0.00 | 0.00 | 0.00 | 39 | 1015.1 |
| 20260902201559 | 86 | 267 | 4.0 | 9.0 | 0.00 | 0.00 | 0.00 | 35 | 1015.2 |
| 20260902200106 | 86 | 316 | 4.0 | 8.0 | 0.00 | 0.00 | 0.00 | 32 | 1015.3 |
| 20260902194554 | 85 | 216 | 3.0 | 8.0 | 0.00 | 0.00 | 0.00 | 38 | 1015.4 |
| 20260902193103 | 85 | 213 | 2.0 | 7.0 | 0.00 | 0.00 | 0.00 | 37 | 1015.6 |
| 20260902191605 | 85 | 16 | 2.0 | 7.0 | 0.00 | 0.00 | 0.00 | 39 | 1015.7 |
| 20260902190108 | 84 | 270 | 3.0 | 9.0 | 0.00 | 0.00 | 0.00 | 39 | 1015.8 |
| 20260902184603 | 83 | 165 | 1.0 | 7.0 | 0.00 | 0.00 | 0.00 | 42 | 1015.9 |
| 20260902183113 | 82 | 264 | 3.0 | 6.0 | 0.00 | 0.00 | 0.00 | 41 | 1016.2 |
| 20260902181555 | 81 | 200 | 2.0 | 6.0 | 0.00 | 0.00 | 0.00 | 41 | 1016.5 |
| 20260902180059 | 80 | 294 | 2.0 | 6.0 | 0.00 | 0.00 | 0.00 | 42 | 1016.7 |
| 20260902174603 | 78 | 175 | 3.0 | 7.0 | 0.00 | 0.00 | 0.00 | 54 | 1016.5 |
| 20260902173108 | 77 | 248 | 1.0 | 3.0 | 0.00 | 0.00 | 0.00 | 56 | 1016.7 |
| 20260902171605 | 75 | 153 | 2.0 | 5.0 | 0.00 | 0.00 | 0.00 | 56 | 1016.6 |
| 20260902170057 | 74 | 307 | 1.0 | 4.0 | 0.00 | 0.00 | 0.00 | 62 | 1016.6 |
| 20260902164559 | 73 | 153 | 1.0 | 4.0 | 0.00 | 0.00 | 0.00 | 62 | 1016.6 |
| 20260902163051 | 72 | 282 | 1.0 | 3.0 | 0.00 | 0.00 | 0.00 | 64 | 1016.6 |
| 20260902161600 | 70 | 121 | 1.0 | 4.0 | 0.00 | 0.00 | 0.00 | 71 | 1016.5 |
| 20260902160055 | 69 | 142 | 0.0 | 3.0 | 0.00 | 0.00 | 0.00 | 75 | 1016.6 |
| 20260902154606 | 66 | 177 | 1.0 | 3.0 | 0.00 | 0.00 | 0.00 | 79 | 1016.6 |
| 20260902153100 | 64 | 181 | 0.0 | 3.0 | 0.00 | 0.00 | 0.00 | 82 | 1016.6 |
| 20260902151554 | 62 | 36 | 1.0 | 2.0 | 0.00 | 0.00 | 0.00 | 82 | 1016.5 |
| 20260902144550 | 58 | 25 | 2.0 | 4.0 | 0.00 | 0.00 | 0.00 | 89 | 1016.6 |
| 20260902143056 | 57 | 126 | 0.0 | 1.0 | 0.00 | 0.00 | 0.00 | 90 | 1016.6 |
| 20260902141554 | 56 | 0 | 0.0 | 0.0 | 0.00 | 0.00 | 0.00 | 90 | 1016.4 |
| 20260902134559 | 56 | 0 | 0.0 | 0.0 | 0.00 | 0.00 | 0.00 | 90 | 1015.9 |
| 20260902133101 | 55 | 0 | 0.0 | 0.0 | 0.00 | 0.00 | 0.00 | 89 | 1015.9 |
| 20260902131600 | 55 | 0 | 0.0 | 0.0 | 0.00 | 0.00 | 0.00 | 88 | 1015.9 |
| 20260902130059 | 56 | 0 | 0.0 | 0.0 | 0.00 | 0.00 | 0.00 | 88 | 1015.6 |
| 20260902124601 | 56 | 0 | 0.0 | 0.0 | 0.00 | 0.00 | 0.00 | 88 | 1015.6 |
| 20260902123107 | 56 | 0 | 0.0 | 0.0 | 0.00 | 0.00 | 0.00 | 88 | 1015.6 |
| 20260902121558 | 56 | 0 | 0.0 | 0.0 | 0.00 | 0.00 | 0.00 | 88 | 1015.6 |
| 20260902114620 | 58 | 0 | 0.0 | 0.0 | 0.00 | 0.00 | 0.00 | 87 | 1015.7 |
| 20260902113107 | 59 | 0 | 0.0 | 0.0 | 0.00 | 0.00 | 0.00 | 87 | 1015.3 |
| 20260902111607 | 59 | 0 | 0.0 | 0.0 | 0.00 | 0.00 | 0.00 | 88 | 1015.4 |
| 20260902104609 | 60 | 0 | 0.0 | 0.0 | 0.00 | 0.00 | 0.00 | 89 | 1015.5 |
| 20260902103111 | 60 | 0 | 0.0 | 0.0 | 0.00 | 0.00 | 0.00 | 90 | 1015.6 |
| 20260902101601 | 60 | 0 | 0.0 | 0.0 | 0.00 | 0.00 | 0.00 | 89 | 1015.7 |
| 20260902100122 | 60 | 0 | 0.0 | 0.0 | 0.00 | 0.00 | 0.00 | 89 | 1015.8 |
| 20260902094616 | 59 | 0 | 0.0 | 0.0 | 0.00 | 0.00 | 0.00 | 89 | 1015.9 |
| 20260902093111 | 59 | 0 | 0.0 | 0.0 | 0.00 | 0.00 | 0.00 | 89 | 1016.0 |
| 20260902091554 | 59 | 0 | 0.0 | 0.0 | 0.00 | 0.00 | 0.00 | 89 | 1016.1 |
| 20260902090100 | 59 | 0 | 0.0 | 0.0 | 0.00 | 0.00 | 0.00 | 89 | 1016.1 |
| 20260902084558 | 59 | 0 | 0.0 | 0.0 | 0.00 | 0.00 | 0.00 | 88 | 1016.2 |